CAPE
0 0 0 0 19 43 81 150 118 206 243 146 19 0 113 479 349 180 1055 1016 1503 1639 1893 2202 2008 2311 2778 3040 3655 3823 3496 3802 3559 3406 2583 2161 1617 1532 1567 1590 1677 1803 1273 1096
0 0 0 0 0 0 70 28 94 168 170 90 6 0 0 320 208 78 201 925 1440 1317 1525 2314 2640 2615 2946 3357 3664 3978 3296 3294 3003 2847 2344 2604 2492 1749 1316 1642 1377 983 808 934
0 0 0 0 0 0 0 1 24 68 2 102 0 26 103 110 48 75 148 662 746 1260 1786 2692 2480 3150 3305 3668 3677 3789 3137 2836 2778 2215 2385 2411 2172 898 880 452 1291 1139 845 777
0 0 0 0 0 0 0 0 0 2 0 3 5 112 765 290 176 14 5 382 496 1089 1286 2877 3103 3380 3443 3455 3321 3541 3767 3669 2662 1778 1638 1817 1543 523 678 840 1118 710 548 934
0 0 0 0 0 0 0 0 0 0 0 0 0 0 703 609 121 13 0 3 489 1002 1260 3067 2802 3141 3197 3036 3227 3419 3737 3434 2704 1920 1541 1517 468 839 1284 759 1009 1447 909 1093
0 0 0 0 0 0 0 0 0 0 0 0 0 0 138 119 360 7 54 401 1151 1849 2853 2941 2975 3149 3070 2314 2498 3056 3435 3177 2110 1401 1726 1414 1232 1078 1253 1245 997 1342 1410 1356
0 0 0 0 0 0 0 0 0 0 0 0 144 15 411 590 485 288 584 943 1683 2866 2687 2277 1600 2739 2630 2075 1913 1041 3015 2458 1978 1536 1145 1171 1169 1092 1029 1083 1083 1092 1152 1144
10 13 0 0 0 0 0 0 0 59 11 94 327 56 125 867 653 348 692 1082 1719 2559 1951 1602 1744 1752 2071 1659 1357 835 2194 1974 1195 1307 1336 1296 700 202 863 1038 1081 1196 1170 1042
0 21 53 0 0 0 0 0 0 0 0 32 258 193 151 244 540 813 887 1068 1624 2539 1755 926 681 1494 1507 1387 1171 1634 1564 1541 1193 1119 1047 1209 579 180 509 975 1045 1259 1102 1030
19 26 0 4 0 0 0 0 0 0 0 33 154 236 862 810 781 1019 1003 1017 1554 2713 1642 1277 1310 1284 1262 1222 1504 1081 1374 1132 1166 1236 1247 1016 309 261 490 635 613 1089 511 956
0 1 1 8 0 0 0 0 0 0 2 40 242 346 642 212 270 975 1192 1182 1613 2382 1789 1501 1156 1078 1045 1128 1095 905 1095 1211 1059 941 1293 898 112 196 507 239 307 378 724 370
0 0 1 6 0 0 0 0 0 0 233 100 249 409 139 191 45 414 1052 1612 1870 2222 1831 1565 1366 1322 1034 980 1168 610 1004 1062 992 1062 1081 789 379 165 744 515 479 547 605 579
18 3 0 0 8 2 0 0 0 32 262 325 126 241 189 203 267 684 1367 1768 2264 2475 2355 1826 1754 1741 1354 1429 1399 567 103 792 1063 1408 596 666 686 963 961 664 740 613 638 432
85 46 9 0 57 68 12 0 0 27 29 25 33 518 318 241 471 1017 1498 1680 2707 2781 2305 2047 2168 2046 2081 2028 2108 836 828 929 1116 1207 738 647 627 843 919 1224 1015 795 560 370
47 576 98 0 24 56 66 40 3 0 21 21 116 192 427 313 189 37 1236 2488 2680 2730 2424 2413 2548 2388 1591 2184 2068 1838 1727 699 1588 1236 1040 963 615 942 551 1073 888 789 556 422
24 367 133 48 26 35 55 62 16 1 0 23 49 177 63 0 1 1 822 2450 2519 2286 2326 2199 2391 1942 1751 1709 1959 2350 1891 1567 1253 808 1468 1182 766 823 505 827 584 747 509 366
150 312 649 144 32 38 100 70 85 13 5 15 214 250 87 69 87 396 1656 2033 2018 2109 1920 1649 1485 1257 1065 821 991 1231 1893 2064 1734 1229 1080 698 868 809 595 435 474 622 416 284
656 876 346 196 273 91 113 173 174 146 26 22 987 571 270 71 166 1075 2374 2267 2134 1574 1285 1166 881 858 669 404 367 358 581 870 1708 1450 1036 667 621 389 677 483 430 434 230 62
292 604 272 166 105 37 202 190 9 100 27 64 390 888 790 657 895 1523 1785 1675 1369 991 731 435 157 55 8 1 1 18 190 226 715 1550 1070 540 459 212 118 205 193 54 22 6
32 812 183 216 73 20 158 269 203 345 45 231 647 1576 1491 1339 1077 1140 903 630 501 215 75 5 0 0 0 0 4 17 444 470 698 731 340 158 80 79 83 85 63 62 72 1
63 186 79 11 56 101 516 368 176 29 608 854 1428 1437 1626 1528 1303 1085 423 196 64 20 0 0 0 0 0 0 0 65 63 100 179 667 518 168 97 79 65 89 98 58 54 33
246 327 96 127 126 36 281 61 44 1521 1092 1335 1414 990 1053 725 413 250 159 53 5 0 0 0 0 0 0 0 1 15 83 110 106 163 230 113 76 76 44 24 49 60 65 55
237 359 357 688 601 1075 1135 1274 1235 1057 1260 1474 1301 795 426 186 59 13 13 1 0 0 0 0 0 0 0 0 2 2 18 67 191 178 79 89 72 84 19 14 22 28 8 22
295 268 363 333 310 580 706 903 838 808 896 1039 722 482 183 75 1 0 0 0 0 0 0 0 0 0 0 0 0 7 16 31 99 41 53 45 100 70 29 4 0 7 11 47
1 213 144 202 245 0 183 796 941 780 760 607 352 294 110 11 2 0 0 0 0 0 0 0 2 1 0 0 0 8 5 22 27 44 31 19 14 19 13 11 9 3 2 4
17 60 62 75 453 354 365 1186 893 683 510 434 188 40 4 0 0 0 0 0 0 0 1 1 0 3 1 0 0 0 1 2 4 11 2 1 4 10 14 4 5 3 1 0
CIN
-0 -0 -0 -0 -106 -91 -54 -36 -1 -35 -32 -31 -26 -0 -4 -3 -8 -4 -0 -43 -3 -3 -17 -6 -15 -1 -15 -8 -2 -1 -1 -1 -4 -3 -5 -9 -24 -29 -7 -16 -23 -15 -17 -10
-0 -0 -0 -0 -0 -0 -51 -56 -40 -15 -8 -41 -109 -0 -0 -305 -145 -318 -6 -16 -2 -6 -3 -24 -11 -5 -7 -17 -3 -2 -2 -4 -3 -3 -6 -3 -1 -7 -27 -13 -41 -45 -17 -9
-0 -0 -0 -0 -0 -0 -0 -32 -38 -33 -23 -50 -0 -76 -25 -426 -38 -292 -81 -2 -1 -1 -3 -6 -19 -7 -1 -28 -14 -2 -9 -4 -2 -5 -2 -1 -1 -35 -28 -47 -11 -18 -32 -9
-0 -0 -0 -0 -0 -0 -0 -0 -0 -11 -0 -46 -16 -1 -3 -212 -223 -36 -27 -5 -10 -2 -5 -29 -30 -7 -1 -1 -31 -25 -8 -2 -0 -6 -13 -0 -0 -20 -23 -13 -9 -22 -23 -4
-0 -0 -0 -0 -0 -0 -0 -0 -0 -0 -0 -0 -0 -1 -14 -21 -121 -55 -0 -2 -6 -4 -3 -8 -20 -22 -1 -0 -23 -30 -20 -5 -2 -1 -5 -1 -13 -0 -1 -12 -1 -1 -12 -4
-0 -0 -0 -0 -0 -0 -0 -0 -0 -0 -0 -0 -13 -0 -22 -186 -125 -214 -40 -2 -3 -6 -17 -12 -29 -18 -6 -1 -9 -19 -11 -1 -0 -0 -0 -0 -0 -0 -0 -1 -0 -1 -0 -0
-0 -0 -0 -0 -0 -0 -0 -0 -0 -0 -0 -0 -9 -2 -1 -7 -58 -107 -9 -8 -2 -7 -36 -51 -48 -1 -0 -22 -21 -45 -7 -0 -0 -0 -0 -0 -0 -0 -0 -0 -1 -0 -0 -0
-64 -18 -0 -0 -0 -0 -0 -0 -0 -1 -0 -15 -27 -53 -100 -15 -36 -29 -7 -1 -6 -21 -29 -46 -26 -2 -1 -41 -52 -58 -1 -3 -38 -6 -0 -0 -0 -4 -1 -0 -2 -0 -1 -1
-4 -13 -1 -0 -0 -0 -0 -0 -0 -0 -0 -2 -21 -50 -49 -7 -23 -28 -10 -3 -1 -25 -60 -102 -54 -0 -17 -45 -41 -1 -14 -15 -32 -22 -9 -0 -0 -6 -1 -0 -2 -1 -1 -4
-82 -24 -0 -2 -0 -0 -0 -0 -0 -0 -0 -3 -4 -0 -8 -51 -38 -16 -11 -13 -2 -10 -38 -26 -14 -11 -33 -42 -7 -11 -16 -26 -8 -17 -1 -3 -9 -7 -3 -6 -9 -0 -10 -3
-0 -96 -51 -2 -0 -0 -0 -0 -0 -0 -0 -2 -0 -69 -114 -231 -161 -33 -7 -18 -1 -18 -29 -79 -16 -8 -27 -19 -7 -12 -18 -14 -16 -41 -4 -7 -57 -17 -1 -10 -14 -19 -5 -18
-0 -0 -11 -2 -0 -0 -0 -0 -0 -1 -5 -9 -1 -57 -157 -52 -322 -223 -1 -7 -1 -14 -52 -15 -13 -17 -25 -9 -2 -46 -63 -43 -43 -28 -2 -17 -24 -31 -0 -3 -1 -6 -5 -5
-1 -1 -0 -0 -3 -2 -0 -0 -0 -14 -10 -6 -1 -7 -117 -144 -105 -26 -4 -1 -2 -57 -13 -24 -24 -10 -9 -3 -29 -36 -185 -42 -31 -2 -29 -7 -10 -2 -0 -1 -0 -1 -1 -4
-79 -5 -0 -0 -2 -17 -0 -0 -0 -1 -0 -10 -4 -80 -128 -204 -53 -16 -7 -0 -5 -13 -36 -34 -26 -30 -1 -35 -22 -49 -52 -21 -25 -1 -15 -18 -9 -4 -4 -1 -0 -0 -0 -0
-1 -1 -0 -0 -7 -2 -1 -2 -1 -0 -0 -2 -6 -26 -127 -362 -297 -85 -20 -3 -0 -0 -6 -18 -25 -7 -2 -17 -11 -26 -14 -15 -9 -5 -7 -4 -20 -0 -8 -2 -1 -0 -0 -1
-3 -0 -4 -23 -2 -1 -1 -1 -1 -0 -0 -1 -1 -347 -380 -0 -5 -1 -37 -0 -0 -0 -4 -2 -3 -2 -3 -3 -3 -7 -4 -5 -2 -4 -11 -4 -0 -9 -9 -1 -1 -0 -1 -9
-6 -8 -0 -1 -12 -2 -1 -3 -4 -2 -3 -1 -51 -82 -29 -129 -274 -29 -22 -0 -7 -8 -2 -16 -18 -35 -56 -67 -54 -21 -5 -4 -7 -6 -0 -12 -1 -6 -6 -2 -5 -2 -5 -5
-13 -3 -3 -0 -1 -0 -30 -75 -83 -14 -0 -2 -83 -16 -18 -39 -159 -10 -1 -0 -8 -17 -54 -62 -82 -89 -139 -194 -214 -157 -103 -42 -11 -1 -12 -24 -5 -2 -9 -7 -4 -0 -0 -10
-52 -2 -0 -0 -0 -5 -7 -121 -157 -4 -5 -5 -8 -151 -53 -58 -6 -3 -1 -0 -16 -80 -142 -193 -243 -297 -59 -0 -0 -335 -215 -163 -30 -0 -7 -32 -32 -44 -30 -1 -0 -15 -46 -69
-0 -1 -2 -0 -1 -0 -2 -0 -3 -12 -10 -3 -6 -13 -82 -58 -14 -16 -45 -100 -143 -223 -336 -119 -0 -0 -0 -0 -346 -274 -115 -71 -18 -0 -1 -13 -21 -43 -34 -26 -23 -22 -7 -2
-0 -0 -0 -10 -3 -1 -8 -13 -14 -7 -12 -21 -58 -14 -49 -32 -102 -81 -116 -133 -62 -234 -0 -0 -0 -0 -0 -0 -0 -184 -123 -95 -31 -2 -0 -27 -6 -0 -0 -17 -13 -15 -11 -5
-0 -0 -7 -1 -0 -0 -4 -6 -7 -27 -42 -12 -107 -166 -39 -86 -48 -104 -47 -82 -55 -0 -0 -0 -0 -0 -0 -0 -0 -57 -95 -37 -13 -4 -3 -48 -0 -0 -3 -9 -3 -2 -1 -0
-19 -20 -3 -23 -26 -33 -8 -19 -27 -39 -42 -11 -61 -141 -156 -167 -163 -84 -82 -6 -0 -0 -0 -0 -0 -0 -0 -0 -0 -0 -14 -20 -0 -4 -4 -0 -0 -0 -1 -7 -0 -9 -0 -0
-32 -50 -10 -58 -46 -44 -1 -5 -6 -7 -43 -23 -55 -133 -137 -155 -0 -0 -0 -0 -0 -0 -0 -0 -0 -0 -0 -0 -0 -0 -10 -16 -20 -0 -0 -0 -0 -0 -0 -0 -0 -0 -0 -0
-10 -30 -31 -27 -85 -0 -26 -0 -6 -19 -38 -35 -55 -81 -96 -54 -0 -0 -0 -0 -0 -0 -1 -0 -0 -0 -0 -0 -0 -0 -1 -0 -0 -0 -0 -10 -6 -4 -0 -0 -1 -4 -8 -5
-6 -10 -24 -29 -47 -2 -39 -2 -1 -3 -5 -23 -87 -125 -47 -0 -0 -0 -0 -0 -0 -0 -2 -0 -0 -6 -4 -0 -0 -0 -1 -0 -1 -1 -3 -0 -0 -0 -0 -2 -0 -4 -2 -0
Wind_Speed
nan nan nan nan nan nan nan 15 12 49 13 18 nan nan 9 22 22 17 25 57 30 24 30 30 32 34 32 26 23 22 22 22 24 24 26 23 24 26 24 27 31 25 28 26
nan nan nan nan nan nan nan nan nan 8 8 nan nan nan nan 37 39 nan 14 35 37 25 26 34 32 31 37 26 27 26 22 24 26 26 26 27 31 29 17 18 18 25 23 24
nan nan nan nan nan nan nan nan nan nan nan 19 nan nan 17 36 nan nan 14 22 25 31 36 32 16 40 31 32 26 25 22 19 26 28 30 33 36 29 18 16 15 18 16 17
nan nan nan nan nan nan nan nan nan nan nan nan nan 5 5 43 32 nan nan 16 20 28 26 32 38 38 36 34 37 22 22 21 24 30 36 39 39 22 15 16 15 16 17 17
nan nan nan nan nan nan nan nan nan nan nan nan nan nan 22 30 29 nan nan nan 32 37 37 35 37 37 40 34 28 23 23 25 29 27 33 34 32 18 10 8 8 8 15 14
nan nan nan nan nan nan nan nan nan nan nan nan nan nan 15 39 19 nan nan 17 47 35 37 37 38 33 35 32 29 22 23 25 27 27 28 30 25 8 6 3 4 7 12 13
nan nan nan nan nan nan nan nan nan nan nan nan 4 nan 8 32 40 37 34 42 36 41 33 32 30 26 26 26 26 18 26 27 29 24 27 27 21 3 1 1 4 5 7 9
nan nan nan nan nan nan nan nan nan nan nan nan 22 nan 27 39 33 36 43 37 32 35 29 29 26 23 25 24 25 20 25 26 23 23 24 29 17 4 6 6 5 4 5 7
nan nan nan nan nan nan nan nan nan nan nan nan 29 18 29 18 34 33 34 23 28 38 27 27 22 25 26 25 26 26 24 23 19 20 21 27 20 3 2 3 7 6 8 6
nan nan nan nan nan nan nan nan nan nan nan nan 5 8 33 35 29 25 25 16 25 34 39 30 17 27 27 28 26 29 25 19 12 13 17 22 29 12 2 6 8 7 5 7
nan nan nan nan nan nan nan nan nan nan nan nan 4 30 29 34 25 20 5 16 28 30 36 33 29 31 28 31 28 32 25 14 9 11 13 22 23 26 17 1 5 4 3 6
nan nan nan nan nan nan nan nan nan nan 8 10 13 35 41 27 nan 6 13 21 28 35 37 37 34 31 33 33 32 28 24 8 9 15 18 20 21 21 22 24 6 6 7 7
nan nan nan nan nan nan nan nan nan nan 17 23 19 24 44 52 36 21 14 22 32 42 37 33 32 30 26 28 23 18 16 15 17 20 21 20 24 22 21 19 15 18 15 10
nan nan nan nan nan nan nan nan nan nan nan nan nan 37 39 29 33 30 19 18 33 40 34 32 31 33 29 29 24 17 19 20 23 22 22 23 24 23 22 21 16 14 13 14
nan 20 nan nan nan nan nan nan nan nan nan nan 13 41 39 39 28 nan 22 9 25 28 34 34 33 31 26 27 25 24 24 22 27 27 32 32 28 22 23 20 17 16 15 15
nan 22 20 nan nan nan nan nan nan nan nan nan nan 49 nan nan nan nan 11 7 18 27 34 31 34 30 24 20 20 19 24 20 21 24 30 32 28 28 23 22 21 20 19 15
15 19 20 18 nan nan 15 nan nan nan nan nan 22 39 nan nan nan 19 18 15 22 31 31 32 33 29 25 22 19 18 22 21 26 28 24 27 29 30 26 20 17 17 19 22
29 26 22 15 20 nan 16 39 41 32 nan nan 42 53 48 nan 20 25 25 27 34 34 34 37 35 30 26 23 20 18 17 16 17 25 22 26 25 23 19 14 18 23 25 nan
27 20 23 20 24 nan 29 28 nan 16 nan nan 28 59 49 40 34 39 34 30 35 40 38 39 34 nan nan nan nan nan 19 22 20 21 21 24 21 25 24 23 23 nan nan nan
nan 31 25 18 nan nan 13 42 33 22 nan 34 45 59 55 44 33 33 34 32 37 41 nan nan nan nan nan nan nan nan 25 25 20 26 28 31 nan nan nan nan nan nan nan nan
nan 27 nan nan nan 18 35 45 38 nan 38 45 54 47 51 36 37 40 40 39 nan nan nan nan nan nan nan nan nan nan nan 27 26 26 31 33 nan nan nan nan nan nan nan nan
23 23 nan 25 21 nan 38 nan nan 51 47 58 58 57 57 47 45 43 44 nan nan nan nan nan nan nan nan nan nan nan nan 25 28 29 29 32 nan nan nan nan nan nan nan nan
28 36 29 36 38 48 54 62 55 52 53 56 53 51 49 51 nan nan nan nan nan nan nan nan nan nan nan nan nan nan nan nan 31 34 nan nan nan nan nan nan nan nan nan nan
42 53 29 32 41 34 57 59 54 59 48 48 47 45 46 nan nan nan nan nan nan nan nan nan nan nan nan nan nan nan nan nan nan nan nan nan 35 nan nan nan nan nan nan nan
nan 43 36 24 39 nan 18 59 45 44 46 49 50 51 46 nan nan nan nan nan nan nan nan nan nan nan nan nan nan nan nan nan nan nan nan nan nan nan nan nan nan nan nan nan
nan nan nan nan 46 15 17 34 39 54 54 55 58 nan nan nan nan nan nan nan nan nan nan nan nan nan nan nan nan nan nan nan nan nan nan nan nan nan nan nan nan nan nan nan
Wind_Direction
nan nan nan nan nan nan nan 174 204 353 353 295 nan nan 271 314 278 355 326 299 350 340 340 344 340 327 318 320 322 321 331 342 342 340 342 333 325 314 298 276 259 262 259 269
nan nan nan nan nan nan nan nan nan 219 282 nan nan nan nan 268 285 nan 116 320 318 327 342 330 335 322 312 311 316 319 329 345 345 342 341 331 321 324 315 287 263 252 254 262
nan nan nan nan nan nan nan nan nan nan nan 294 nan nan 26 293 nan nan 63 295 321 330 333 334 335 304 301 300 304 321 328 343 346 345 343 338 332 323 299 300 273 253 225 232
nan nan nan nan nan nan nan nan nan nan nan nan nan 282 347 307 322 nan nan 312 326 302 293 298 290 295 316 300 300 320 327 330 332 339 344 343 336 322 302 290 277 261 234 236
nan nan nan nan nan nan nan nan nan nan nan nan nan nan 268 266 265 nan nan nan 307 300 301 302 300 303 318 317 308 304 319 319 329 331 340 340 335 329 318 295 286 245 240 249
nan nan nan nan nan nan nan nan nan nan nan nan nan nan 282 281 354 nan nan 283 290 285 297 302 305 314 326 308 309 319 318 329 333 333 329 336 337 346 349 344 306 249 251 258
nan nan nan nan nan nan nan nan nan nan nan nan 148 nan 116 302 297 305 310 296 288 293 311 311 325 327 317 305 294 317 312 328 327 328 341 338 325 303 296 237 323 282 257 251
nan nan nan nan nan nan nan nan nan nan nan nan 248 nan 155 260 286 304 293 306 312 312 320 324 330 353 318 304 316 314 315 316 330 332 346 344 326 302 297 251 228 262 282 266
nan nan nan nan nan nan nan nan nan nan nan nan 325 353 324 256 282 295 305 316 318 319 321 328 343 324 317 319 319 320 316 314 325 334 355 351 348 309 304 210 211 241 258 252
nan nan nan nan nan nan nan nan nan nan nan nan 256 293 282 281 254 297 303 320 306 321 330 344 341 316 318 333 323 328 312 312 319 327 359 356 348 359 211 233 218 219 222 225
nan nan nan nan nan nan nan nan nan nan nan nan 224 254 254 249 243 233 306 302 300 318 325 318 332 324 328 328 334 342 320 315 332 348 15 350 357 6 6 5 220 172 208 216
nan nan nan nan nan nan nan nan nan nan 160 186 243 299 289 293 nan 176 63 296 303 314 315 318 322 322 329 339 340 342 349 323 343 354 360 353 356 5 2 11 337 257 277 260
nan nan nan nan nan nan nan nan nan nan 176 185 223 270 299 300 282 63 325 291 290 302 308 310 316 325 321 314 313 337 33 17 340 344 343 356 348 352 353 357 1 353 353 268
nan nan nan nan nan nan nan nan nan nan nan nan nan 270 253 255 259 270 186 289 285 301 306 309 309 319 322 310 307 321 1 360 334 337 345 342 335 338 342 340 339 348 343 336
nan 216 nan nan nan nan nan nan nan nan nan nan 227 272 304 304 297 nan 218 245 287 294 287 291 299 308 317 304 304 310 330 317 312 327 336 329 331 327 316 316 323 326 339 345
nan 228 214 nan nan nan nan nan nan nan nan nan nan 278 nan nan nan nan 146 305 300 295 299 305 298 299 290 287 288 292 313 312 319 322 330 326 317 316 323 317 307 322 321 319
235 225 224 206 nan nan 187 nan nan nan nan nan 251 276 nan nan nan 17 35 325 313 298 300 301 300 298 287 277 282 278 276 292 310 320 324 317 316 318 326 325 298 290 284 287
217 210 206 201 171 nan 201 217 227 169 nan nan 279 290 286 nan 40 20 316 311 297 306 307 302 295 281 266 258 266 273 277 286 307 320 318 311 314 326 334 314 286 281 280 nan
252 210 219 203 189 nan 245 248 nan 180 nan nan 235 276 284 306 323 278 283 296 298 290 286 294 288 nan nan nan nan nan 300 312 316 313 305 301 279 267 270 267 268 nan nan nan
nan 230 224 201 nan nan 177 265 270 254 nan 244 236 268 288 291 287 279 278 279 282 283 nan nan nan nan nan nan nan nan 279 291 296 287 282 276 nan nan nan nan nan nan nan nan
nan 233 nan nan nan 193 237 255 259 nan 249 247 246 253 275 266 258 273 273 269 nan nan nan nan nan nan nan nan nan nan nan 281 289 288 278 277 nan nan nan nan nan nan nan nan
274 265 nan 232 235 nan 240 nan nan 252 260 255 258 261 265 269 273 276 275 nan nan nan nan nan nan nan nan nan nan nan nan 290 289 290 286 286 nan nan nan nan nan nan nan nan
220 220 209 234 228 232 236 250 256 255 262 267 272 271 273 273 nan nan nan nan nan nan nan nan nan nan nan nan nan nan nan nan 289 292 nan nan nan nan nan nan nan nan nan nan
232 229 199 220 242 238 258 250 249 255 264 276 278 278 272 nan nan nan nan nan nan nan nan nan nan nan nan nan nan nan nan nan nan nan nan nan 288 nan nan nan nan nan nan nan
nan 237 237 241 231 nan 165 234 255 269 273 275 278 275 277 nan nan nan nan nan nan nan nan nan nan nan nan nan nan nan nan nan nan nan nan nan nan nan nan nan nan nan nan nan
nan nan nan nan 240 268 201 244 274 268 265 262 269 nan nan nan nan nan nan nan nan nan nan nan nan nan nan nan nan nan nan nan nan nan nan nan nan nan nan nan nan nan nan nan